AA6MV Weather Reports


time (UTC)temp
C
wind
direction
speed
KPH
gust
KPH
rain 1hr
cm
rain 24hr
cm
rain mn
cm
humidity
%
barometer
mb
20260506081608 8 69 0.0 0.0 0.00 0.18 0.00 62 1007.4
20260506071555 9 91 0.0 0.0 0.00 0.18 0.00 59 1007.5
20260506061517 12 18 0.0 0.0 0.00 0.18 0.00 54 1007.1
20260506044555 13 26 0.0 8.0 0.00 0.18 0.00 48 1006.4
20260506043050 13 20 0.0 0.0 0.00 0.18 0.00 46 1006.2
20260506041547 14 60 0.0 0.0 0.00 0.18 0.00 44 1006.1
20260506040056 14 56 0.0 0.0 0.00 0.18 0.00 43 1006.0
20260506033039 15 95 0.0 0.0 0.00 0.18 0.00 43 1005.5
20260506031544 15 44 0.0 0.0 0.00 0.18 0.00 42 1005.1
20260506030035 16 34 0.0 0.0 0.00 0.18 0.00 42 1004.7
20260506024534 16 45 4.8 12.9 0.00 0.18 0.00 42 1004.5
20260506023030 16 50 6.4 16.1 0.00 0.18 0.00 41 1004.2
20260506021526 16 33 6.4 17.7 0.00 0.18 0.00 40 1004.0
20260506020056 17 17 11.3 20.9 0.00 0.18 0.18 38 1003.7
20260506014542 17 32 9.7 24.1 0.00 0.18 0.18 37 1003.4
20260506013042 18 44 11.3 25.7 0.00 0.18 0.18 36 1003.3
20260506011544 18 34 12.9 29.0 0.00 0.18 0.18 37 1003.0
20260506010004 19 48 19.3 32.2 0.00 0.18 0.18 36 1002.8
20260506004505 20 57 11.3 24.1 0.00 0.18 0.18 35 1002.6
20260506003121 20 63 16.1 29.0 0.00 0.18 0.18 35 1002.4
20260506001555 20 36 19.3 35.4 0.00 0.18 0.18 34 1002.4
20260506000054 20 23 12.9 37.0 0.00 0.18 0.18 33 1002.3
20260505234551 21 41 17.7 33.8 0.00 0.18 0.18 29 1002.1
20260505233103 21 49 17.7 35.4 0.00 0.18 0.18 31 1002.1
20260505231550 21 23 14.5 37.0 0.00 0.18 0.18 33 1002.0
20260505230052 21 359 16.1 37.0 0.00 0.18 0.18 34 1002.0
20260505224544 21 39 12.9 27.4 0.00 0.18 0.18 32 1002.2
20260505223152 21 15 16.1 37.0 0.00 0.18 0.18 32 1002.2
20260505221538 21 37 17.7 32.2 0.00 0.18 0.18 31 1002.5
20260505220044 21 36 19.3 35.4 0.00 0.18 0.18 32 1002.8
20260505214534 21 3 20.9 35.4 0.00 0.18 0.18 30 1002.9
20260505213033 21 101 19.3 37.0 0.00 0.18 0.18 31 1003.0
20260505211529 21 1 16.1 32.2 0.00 0.18 0.18 33 1003.2
20260505210055 21 20 16.1 29.0 0.00 0.18 0.18 35 1003.3
20260505204554 20 15 17.7 32.2 0.00 0.18 0.18 36 1003.5
20260505203052 20 359 14.5 33.8 0.00 0.18 0.18 37 1003.6
20260505201555 20 19 4.8 22.5 0.00 0.18 0.18 43 1003.7
20260505200041 19 2 11.3 22.5 0.00 0.18 0.18 44 1004.0
20260505194538 18 27 11.3 22.5 0.00 0.18 0.18 49 1004.3
20260505193035 17 40 1.6 20.9 0.00 0.18 0.18 52 1004.6
20260505191534 17 35 3.2 9.7 0.00 0.18 0.18 55 1004.8
20260505190038 16 39 0.0 6.4 0.00 0.18 0.18 60 1005.0
20260505184532 16 157 0.0 0.0 0.00 0.18 0.18 63 1005.3
20260505183041 15 95 0.0 0.0 0.00 0.18 0.18 63 1005.4
20260505181533 15 89 0.0 0.0 0.00 0.18 0.18 63 1005.7
20260505180013 15 61 0.0 0.0 0.00 0.18 0.18 64 1005.6
20260505174511 15 51 0.0 0.0 0.00 0.18 0.18 65 1005.6
20260505173010 15 77 0.0 0.0 0.00 0.18 0.18 66 1005.5
20260505171525 14 32 0.0 3.2 0.00 0.18 0.18 67 1005.5
20260505170000 14 95 0.0 0.0 0.00 0.18 0.18 70 1005.4
20260505164601 14 94 0.0 0.0 0.00 0.18 0.18 70 1005.4
20260505163057 14 328 0.0 0.0 0.00 0.18 0.18 73 1005.2
20260505161618 13 51 0.0 0.0 0.00 0.18 0.18 76 1005.4
20260505153054 11 4 0.0 1.6 0.03 0.18 0.18 78 1005.2
20260505151554 11 351 0.0 6.4 0.03 0.18 0.18 79 1004.7
20260505124557 12 247 0.0 0.0 0.03 0.03 0.03 64 1003.4
20260505124506 12 243 0.0 0.0 0.03 0.03 0.03 64 1003.5
20260505123053 12 254 0.0 0.0 0.00 0.00 0.00 64 1003.6
20260505121551 12 291 0.0 0.0 0.00 0.00 0.00 59 1003.7
20260505120045 13 341 0.0 0.0 0.00 0.00 0.00 54 1004.0
20260505114518 13 316 0.0 0.0 0.00 0.00 0.00 52 1004.0
20260505113015 13 352 0.0 0.0 0.00 0.00 0.00 51 1004.2
20260505111517 13 295 0.0 0.0 0.00 0.00 0.00 49 1003.9
20260505101532 13 13 0.0 0.0 0.00 0.00 0.00 44 1004.7
20260505100030 13 13 0.0 0.0 0.00 0.00 0.00 43 1004.8
20260505094642 14 13 0.0 0.0 0.00 0.00 0.00 42 1004.9
20260505093032 14 12 0.0 0.0 0.00 0.00 0.00 41 1005.1
20260505091529 14 66 0.0 0.0 0.00 0.00 0.00 42 1005.3
20260505090137 14 47 0.0 0.0 0.00 0.00 0.00 42 1005.2
20260505084526 14 6 0.0 0.0 0.00 0.00 0.00 42 1005.5
20260505083146 14 7 0.0 0.0 0.00 0.00 0.00 42 1005.6